| time (UTC) | temp C | wind direction | speed KPH | gust KPH | rain 1hr cm | rain 24hr cm | rain mn cm | humidity % | barometer mb |
| 20260902214952 | 24 | 239 | 19.3 | 22.5 | 0.00 | 0.00 | 0.00 | 61 | 1014.1 |
| 20260902213940 | 24 | 234 | 17.7 | 24.1 | 0.00 | 0.00 | 0.00 | 61 | 1014.1 |
| 20260902213433 | 23 | 292 | 8.0 | 24.1 | 0.00 | 0.00 | 0.00 | 61 | 1014.1 |
| 20260902212926 | 24 | 176 | 9.7 | 22.5 | 0.00 | 0.00 | 0.00 | 61 | 1014.1 |
| 20260902211913 | 23 | 228 | 12.9 | 24.1 | 0.00 | 0.00 | 0.00 | 60 | 1014.1 |
| 20260902211407 | 24 | 195 | 14.5 | 22.5 | 0.00 | 0.00 | 0.00 | 59 | 1014.1 |
| 20260902205848 | 25 | 232 | 11.3 | 17.7 | 0.00 | 0.00 | 0.00 | 57 | 1014.5 |
| 20260902205340 | 24 | 256 | 9.7 | 17.7 | 0.00 | 0.00 | 0.00 | 57 | 1014.5 |
| 20260902203821 | 23 | 231 | 8.0 | 22.5 | 0.00 | 0.00 | 0.00 | 59 | 1014.5 |
| 20260902203315 | 24 | 227 | 11.3 | 17.7 | 0.00 | 0.00 | 0.00 | 56 | 1014.5 |
| 20260902202301 | 23 | 263 | 12.9 | 20.9 | 0.00 | 0.00 | 0.00 | 59 | 1014.5 |
| 20260902201250 | 23 | 196 | 9.7 | 22.5 | 0.00 | 0.00 | 0.00 | 61 | 1014.8 |
| 20260902200235 | 23 | 228 | 11.3 | 17.7 | 0.00 | 0.00 | 0.00 | 61 | 1014.8 |
| 20260902195729 | 23 | 249 | 11.3 | 17.7 | 0.00 | 0.00 | 0.00 | 61 | 1014.8 |
| 20260902195225 | 23 | 236 | 12.9 | 17.7 | 0.00 | 0.00 | 0.00 | 61 | 1014.8 |
| 20260902194715 | 23 | 250 | 11.3 | 17.7 | 0.00 | 0.00 | 0.00 | 61 | 1015.1 |
| 20260902194209 | 23 | 222 | 14.5 | 17.7 | 0.00 | 0.00 | 0.00 | 60 | 1015.1 |
| 20260902193703 | 23 | 222 | 11.3 | 16.1 | 0.00 | 0.00 | 0.00 | 61 | 1015.1 |
| 20260902193156 | 23 | 290 | 6.4 | 17.7 | 0.00 | 0.00 | 0.00 | 63 | 1015.1 |
| 20260902192650 | 23 | 250 | 12.9 | 17.7 | 0.00 | 0.00 | 0.00 | 64 | 1015.1 |
| 20260902192143 | 22 | 221 | 9.7 | 17.7 | 0.00 | 0.00 | 0.00 | 65 | 1015.1 |
| 20260902191636 | 23 | 230 | 17.7 | 17.7 | 0.00 | 0.00 | 0.00 | 65 | 1015.1 |
| 20260902191130 | 23 | 262 | 12.9 | 14.5 | 0.00 | 0.00 | 0.00 | 64 | 1015.1 |
| 20260902190624 | 22 | 230 | 4.8 | 16.1 | 0.00 | 0.00 | 0.00 | 66 | 1015.1 |
| 20260902190118 | 23 | 239 | 14.5 | 16.1 | 0.00 | 0.00 | 0.00 | 65 | 1015.1 |
| 20260902185610 | 23 | 265 | 6.4 | 16.1 | 0.00 | 0.00 | 0.00 | 64 | 1015.1 |
| 20260902185104 | 23 | 232 | 4.8 | 16.1 | 0.00 | 0.00 | 0.00 | 65 | 1015.1 |
| 20260902184558 | 23 | 185 | 9.7 | 16.1 | 0.00 | 0.00 | 0.00 | 66 | 1015.5 |
| 20260902184051 | 23 | 188 | 12.9 | 16.1 | 0.00 | 0.00 | 0.00 | 67 | 1015.5 |
| 20260902183544 | 23 | 282 | 8.0 | 16.1 | 0.00 | 0.00 | 0.00 | 67 | 1015.5 |
| 20260902183040 | 22 | 235 | 11.3 | 16.1 | 0.00 | 0.00 | 0.00 | 67 | 1015.5 |
| 20260902182531 | 22 | 262 | 4.8 | 16.1 | 0.00 | 0.00 | 0.00 | 67 | 1015.5 |
| 20260902182024 | 23 | 245 | 9.7 | 14.5 | 0.00 | 0.00 | 0.00 | 67 | 1015.5 |
| 20260902181518 | 22 | 206 | 6.4 | 12.9 | 0.00 | 0.00 | 0.00 | 67 | 1015.5 |
| 20260902180504 | 22 | 220 | 8.0 | 14.5 | 0.00 | 0.00 | 0.00 | 66 | 1015.5 |
| 20260902175958 | 22 | 271 | 4.8 | 11.3 | 0.00 | 0.00 | 0.00 | 67 | 1015.1 |
| 20260902175452 | 22 | 229 | 6.4 | 12.9 | 0.00 | 0.00 | 0.00 | 68 | 1015.1 |
| 20260902174946 | 22 | 242 | 8.0 | 12.9 | 0.00 | 0.00 | 0.00 | 67 | 1015.1 |
| 20260902174439 | 22 | 195 | 8.0 | 12.9 | 0.00 | 0.00 | 0.00 | 68 | 1015.1 |
| 20260902173932 | 22 | 203 | 3.2 | 11.3 | 0.00 | 0.00 | 0.00 | 68 | 1015.5 |
| 20260902173426 | 22 | 235 | 4.8 | 11.3 | 0.00 | 0.00 | 0.00 | 68 | 1015.1 |
| 20260902172919 | 23 | 211 | 9.7 | 11.3 | 0.00 | 0.00 | 0.00 | 67 | 1015.5 |
| 20260902171907 | 23 | 20 | 1.6 | 6.4 | 0.00 | 0.00 | 0.00 | 63 | 1015.5 |
| 20260902171400 | 23 | 245 | 1.6 | 9.7 | 0.00 | 0.00 | 0.00 | 62 | 1015.1 |
| 20260902170853 | 23 | 43 | 1.6 | 9.7 | 0.00 | 0.00 | 0.00 | 64 | 1015.1 |
| 20260902165841 | 22 | 173 | 0.0 | 11.3 | 0.00 | 0.00 | 0.00 | 68 | 1015.1 |
| 20260902164827 | 22 | 256 | 3.2 | 12.9 | 0.00 | 0.00 | 0.00 | 68 | 1015.1 |
| 20260902163814 | 22 | 169 | 4.8 | 11.3 | 0.00 | 0.00 | 0.00 | 68 | 1014.8 |
| 20260902163308 | 22 | 257 | 1.6 | 11.3 | 0.00 | 0.00 | 0.00 | 68 | 1015.1 |
| 20260902162801 | 22 | 182 | 6.4 | 9.7 | 0.00 | 0.00 | 0.00 | 68 | 1015.1 |
| 20260902162254 | 22 | 236 | 3.2 | 6.4 | 0.00 | 0.00 | 0.00 | 67 | 1015.1 |
| 20260902161748 | 22 | 291 | 0.0 | 4.8 | 0.00 | 0.00 | 0.00 | 69 | 1015.1 |
| 20260902161242 | 21 | 226 | 3.2 | 9.7 | 0.00 | 0.00 | 0.00 | 71 | 1015.1 |
| 20260902160735 | 21 | 156 | 3.2 | 9.7 | 0.00 | 0.00 | 0.00 | 72 | 1015.1 |
| 20260902160229 | 21 | 197 | 6.4 | 9.7 | 0.00 | 0.00 | 0.00 | 72 | 1015.1 |
| 20260902155722 | 21 | 154 | 1.6 | 6.4 | 0.00 | 0.00 | 0.00 | 71 | 1015.1 |
| 20260902155216 | 21 | 173 | 3.2 | 4.8 | 0.00 | 0.00 | 0.00 | 71 | 1015.1 |
| 20260902154709 | 21 | 231 | 3.2 | 9.7 | 0.00 | 0.00 | 0.00 | 72 | 1015.1 |
| 20260902154203 | 21 | 187 | 3.2 | 9.7 | 0.00 | 0.00 | 0.00 | 73 | 1015.1 |
| 20260902153657 | 21 | 291 | 0.0 | 4.8 | 0.00 | 0.00 | 0.00 | 74 | 1014.8 |
| 20260902153151 | 21 | 266 | 1.6 | 4.8 | 0.00 | 0.00 | 0.00 | 74 | 1014.8 |
| 20260902152643 | 21 | 234 | 1.6 | 4.8 | 0.00 | 0.00 | 0.00 | 75 | 1015.1 |
| 20260902152139 | 20 | 302 | 1.6 | 3.2 | 0.00 | 0.00 | 0.00 | 76 | 1014.8 |
| 20260902151630 | 20 | 273 | 0.0 | 3.2 | 0.00 | 0.00 | 0.00 | 77 | 1014.8 |
| 20260902150617 | 20 | 276 | 1.6 | 1.6 | 0.00 | 0.00 | 0.00 | 78 | 1015.1 |
| 20260902150111 | 20 | 341 | 0.0 | 1.6 | 0.00 | 0.00 | 0.00 | 79 | 1014.8 |
| 20260902145604 | 18 | 340 | 0.0 | 1.6 | 0.00 | 0.00 | 0.00 | 81 | 1014.8 |
| 20260902145059 | 18 | 348 | 1.6 | 3.2 | 0.00 | 0.00 | 0.00 | 83 | 1015.1 |
| 20260902144045 | 17 | 334 | 1.6 | 3.2 | 0.00 | 0.00 | 0.00 | 85 | 1014.8 |
| 20260902143539 | 17 | 328 | 0.0 | 3.2 | 0.00 | 0.00 | 0.00 | 86 | 1014.8 |
| 20260902143031 | 17 | 342 | 1.6 | 4.8 | 0.00 | 0.00 | 0.00 | 86 | 1014.8 |
| 20260902142525 | 17 | 337 | 1.6 | 4.8 | 0.00 | 0.00 | 0.00 | 87 | 1014.8 |
| 20260902142019 | 17 | 327 | 3.2 | 4.8 | 0.00 | 0.00 | 0.00 | 87 | 1014.8 |
| 20260902141513 | 16 | 321 | 1.6 | 4.8 | 0.00 | 0.00 | 0.00 | 88 | 1014.8 |
| 20260902141005 | 16 | 306 | 1.6 | 4.8 | 0.00 | 0.00 | 0.00 | 88 | 1014.8 |
| 20260902135953 | 16 | 335 | 1.6 | 3.2 | 0.00 | 0.00 | 0.00 | 88 | 1014.5 |
| 20260902135446 | 16 | 323 | 3.2 | 3.2 | 0.00 | 0.00 | 0.00 | 89 | 1014.5 |
| 20260902134940 | 16 | 323 | 1.6 | 3.2 | 0.00 | 0.00 | 0.00 | 88 | 1014.5 |
| 20260902134434 | 16 | 318 | 0.0 | 3.2 | 0.00 | 0.00 | 0.00 | 88 | 1014.5 |
| 20260902133926 | 16 | 329 | 3.2 | 3.2 | 0.00 | 0.00 | 0.00 | 88 | 1014.5 |
| 20260902133420 | 16 | 319 | 1.6 | 4.8 | 0.00 | 0.00 | 0.00 | 88 | 1014.5 |
| 20260902132914 | 16 | 324 | 1.6 | 4.8 | 0.00 | 0.00 | 0.00 | 88 | 1014.5 |
| 20260902132407 | 16 | 333 | 1.6 | 3.2 | 0.00 | 0.00 | 0.00 | 88 | 1014.5 |
| 20260902131901 | 16 | 333 | 1.6 | 3.2 | 0.00 | 0.00 | 0.00 | 87 | 1014.1 |
| 20260902131354 | 16 | 332 | 1.6 | 3.2 | 0.00 | 0.00 | 0.00 | 88 | 1014.1 |
| 20260902130847 | 16 | 325 | 1.6 | 3.2 | 0.00 | 0.00 | 0.00 | 87 | 1014.1 |
| 20260902130340 | 16 | 338 | 3.2 | 3.2 | 0.00 | 0.00 | 0.00 | 87 | 1014.5 |
| 20260902125834 | 16 | 327 | 1.6 | 3.2 | 0.00 | 0.00 | 0.00 | 87 | 1014.5 |
| 20260902125328 | 16 | 322 | 1.6 | 3.2 | 0.00 | 0.00 | 0.00 | 87 | 1014.1 |
| 20260902124822 | 16 | 323 | 1.6 | 3.2 | 0.00 | 0.00 | 0.00 | 87 | 1014.5 |
| 20260902124315 | 16 | 328 | 1.6 | 4.8 | 0.00 | 0.00 | 0.00 | 87 | 1014.1 |
| 20260902123808 | 16 | 338 | 3.2 | 3.2 | 0.00 | 0.00 | 0.00 | 87 | 1014.5 |
| 20260902123302 | 16 | 325 | 0.0 | 3.2 | 0.00 | 0.00 | 0.00 | 87 | 1014.1 |
| 20260902122756 | 16 | 328 | 0.0 | 3.2 | 0.00 | 0.00 | 0.00 | 87 | 1014.5 |
| 20260902121236 | 16 | 328 | 1.6 | 3.2 | 0.00 | 0.00 | 0.00 | 87 | 1014.5 |
| 20260902120730 | 16 | 324 | 3.2 | 3.2 | 0.00 | 0.00 | 0.00 | 87 | 1014.5 |
| 20260902120224 | 16 | 326 | 1.6 | 3.2 | 0.00 | 0.00 | 0.00 | 87 | 1014.5 |
| 20260902115717 | 16 | 316 | 0.0 | 3.2 | 0.00 | 0.00 | 0.00 | 86 | 1014.5 |
| 20260902115210 | 16 | 318 | 0.0 | 3.2 | 0.00 | 0.00 | 0.00 | 87 | 1014.5 |
| 20260902114703 | 16 | 325 | 1.6 | 3.2 | 0.00 | 0.00 | 0.00 | 87 | 1014.5 |
| 20260902114157 | 16 | 327 | 0.0 | 3.2 | 0.00 | 0.00 | 0.00 | 86 | 1014.5 |
| 20260902113145 | 16 | 321 | 0.0 | 3.2 | 0.00 | 0.00 | 0.00 | 86 | 1014.5 |
| 20260902112132 | 16 | 337 | 0.0 | 3.2 | 0.00 | 0.00 | 0.00 | 86 | 1014.5 |
| 20260902111624 | 17 | 335 | 1.6 | 3.2 | 0.00 | 0.00 | 0.00 | 86 | 1014.5 |
| 20260902111118 | 16 | 342 | 1.6 | 3.2 | 0.00 | 0.00 | 0.00 | 86 | 1014.5 |
| 20260902110612 | 17 | 0 | 1.6 | 3.2 | 0.00 | 0.00 | 0.00 | 85 | 1014.5 |
| 20260902110106 | 17 | 328 | 0.0 | 3.2 | 0.00 | 0.00 | 0.00 | 85 | 1014.5 |
| 20260902105559 | 17 | 340 | 1.6 | 3.2 | 0.00 | 0.00 | 0.00 | 85 | 1014.5 |
| 20260902105053 | 17 | 332 | 0.0 | 3.2 | 0.00 | 0.00 | 0.00 | 85 | 1014.5 |
| 20260902104546 | 17 | 341 | 1.6 | 3.2 | 0.00 | 0.00 | 0.00 | 85 | 1014.5 |
| 20260902104039 | 17 | 330 | 0.0 | 4.8 | 0.00 | 0.00 | 0.00 | 84 | 1014.5 |
| 20260902103532 | 17 | 340 | 3.2 | 4.8 | 0.00 | 0.00 | 0.00 | 84 | 1014.5 |
| 20260902103026 | 17 | 343 | 3.2 | 4.8 | 0.00 | 0.00 | 0.00 | 84 | 1014.5 |
| 20260902102520 | 17 | 1 | 1.6 | 4.8 | 0.00 | 0.00 | 0.00 | 84 | 1014.5 |
| 20260902102013 | 17 | 343 | 3.2 | 4.8 | 0.00 | 0.00 | 0.00 | 84 | 1014.5 |
| 20260902101507 | 17 | 25 | 3.2 | 4.8 | 0.00 | 0.00 | 0.00 | 84 | 1014.5 |
| 20260902094935 | 17 | 349 | 3.2 | 3.2 | 0.00 | 0.00 | 0.00 | 83 | 1014.5 |
| 20260902094428 | 17 | 12 | 3.2 | 4.8 | 0.00 | 0.00 | 0.00 | 83 | 1014.5 |
| 20260902093921 | 17 | 26 | 3.2 | 6.4 | 0.00 | 0.00 | 0.00 | 83 | 1014.5 |
| 20260902093415 | 17 | 19 | 3.2 | 6.4 | 0.00 | 0.00 | 0.00 | 83 | 1014.5 |
| 20260902092908 | 17 | 27 | 3.2 | 6.4 | 0.00 | 0.00 | 0.00 | 83 | 1014.5 |
| 20260902092402 | 17 | 9 | 4.8 | 6.4 | 0.00 | 0.00 | 0.00 | 83 | 1014.5 |
| 20260902091856 | 17 | 16 | 3.2 | 4.8 | 0.00 | 0.00 | 0.00 | 83 | 1014.5 |
| 20260902091349 | 17 | 8 | 3.2 | 4.8 | 0.00 | 0.00 | 0.00 | 82 | 1014.5 |
| 20260902090843 | 17 | 4 | 3.2 | 6.4 | 0.00 | 0.00 | 0.00 | 82 | 1014.5 |
| 20260902090337 | 17 | 1 | 4.8 | 6.4 | 0.00 | 0.00 | 0.00 | 82 | 1014.5 |
| 20260902085830 | 17 | 5 | 3.2 | 4.8 | 0.00 | 0.00 | 0.00 | 82 | 1014.5 |
| 20260902085324 | 17 | 25 | 3.2 | 6.4 | 0.00 | 0.00 | 0.00 | 82 | 1014.5 |
| 20260902084817 | 17 | 8 | 3.2 | 6.4 | 0.00 | 0.00 | 0.00 | 82 | 1014.1 |
| 20260902084310 | 17 | 347 | 4.8 | 4.8 | 0.00 | 0.00 | 0.00 | 81 | 1014.5 |
| 20260902083804 | 17 | 36 | 1.6 | 6.4 | 0.00 | 0.00 | 0.00 | 81 | 1014.5 |
| 20260902083300 | 17 | 15 | 3.2 | 6.4 | 0.00 | 0.00 | 0.00 | 81 | 1014.5 |
| 20260902081738 | 17 | 3 | 3.2 | 6.4 | 0.00 | 0.00 | 0.00 | 80 | 1014.5 |
| 20260902081231 | 17 | 11 | 4.8 | 9.7 | 0.00 | 0.00 | 0.00 | 80 | 1014.5 |
| 20260902080725 | 17 | 18 | 6.4 | 9.7 | 0.00 | 0.00 | 0.00 | 80 | 1014.5 |
| 20260902075712 | 17 | 9 | 6.4 | 9.7 | 0.00 | 0.00 | 0.00 | 79 | 1014.5 |
| 20260902075206 | 17 | 18 | 6.4 | 9.7 | 0.00 | 0.00 | 0.00 | 79 | 1014.5 |
| 20260902074659 | 17 | 9 | 6.4 | 6.4 | 0.00 | 0.00 | 0.00 | 78 | 1014.5 |
| 20260902074153 | 17 | 5 | 3.2 | 6.4 | 0.00 | 0.00 | 0.00 | 77 | 1014.5 |
| 20260902073646 | 17 | 7 | 4.8 | 6.4 | 0.00 | 0.00 | 0.00 | 77 | 1014.5 |
| 20260902073140 | 17 | 11 | 3.2 | 6.4 | 0.00 | 0.00 | 0.00 | 77 | 1014.5 |
| 20260902072634 | 17 | 9 | 4.8 | 6.4 | 0.00 | 0.00 | 0.00 | 77 | 1014.5 |
| 20260902072127 | 17 | 22 | 3.2 | 6.4 | 0.00 | 0.00 | 0.00 | 77 | 1014.1 |
| 20260902071621 | 18 | 17 | 6.4 | 6.4 | 0.00 | 0.00 | 0.00 | 77 | 1014.1 |
| 20260902071113 | 18 | 12 | 4.8 | 6.4 | 0.00 | 0.00 | 0.00 | 77 | 1014.1 |
| 20260902070607 | 18 | 0 | 3.2 | 6.4 | 0.00 | 0.00 | 0.00 | 76 | 1014.1 |
| 20260902065555 | 18 | 14 | 4.8 | 9.7 | 0.00 | 0.00 | 0.00 | 76 | 1014.1 |
| 20260902064542 | 18 | 10 | 4.8 | 6.4 | 0.00 | 0.00 | 0.00 | 74 | 1013.8 |
| 20260902064035 | 18 | 355 | 3.2 | 4.8 | 0.00 | 0.00 | 0.00 | 74 | 1013.8 |
| 20260902063528 | 18 | 28 | 3.2 | 6.4 | 0.00 | 0.00 | 0.00 | 74 | 1014.1 |
| 20260902063022 | 18 | 14 | 3.2 | 6.4 | 0.00 | 0.00 | 0.00 | 73 | 1014.1 |
| 20260902062516 | 18 | 19 | 4.8 | 6.4 | 0.00 | 0.00 | 0.00 | 73 | 1014.1 |
| 20260902062009 | 18 | 19 | 4.8 | 4.8 | 0.00 | 0.00 | 0.00 | 73 | 1014.1 |
| 20260902061503 | 18 | 352 | 1.6 | 6.4 | 0.00 | 0.00 | 0.00 | 73 | 1014.1 |
| 20260902060450 | 17 | 0 | 1.6 | 4.8 | 0.00 | 0.00 | 0.00 | 73 | 1014.1 |
| 20260902055437 | 17 | 342 | 1.6 | 3.2 | 0.00 | 0.00 | 0.00 | 73 | 1013.8 |
| 20260902054930 | 18 | 337 | 1.6 | 3.2 | 0.00 | 0.00 | 0.00 | 74 | 1013.8 |
| 20260902054424 | 18 | 327 | 1.6 | 3.2 | 0.00 | 0.00 | 0.00 | 74 | 1013.8 |
| 20260902053917 | 18 | 334 | 1.6 | 3.2 | 0.00 | 0.00 | 0.00 | 74 | 1013.8 |
| 20260902053411 | 18 | 344 | 1.6 | 3.2 | 0.00 | 0.00 | 0.00 | 74 | 1013.8 |
| 20260902052359 | 18 | 333 | 1.6 | 4.8 | 0.00 | 0.00 | 0.00 | 74 | 1013.8 |
| 20260902051851 | 18 | 330 | 1.6 | 6.4 | 0.00 | 0.00 | 0.00 | 74 | 1013.8 |
| 20260902051345 | 18 | 16 | 4.8 | 6.4 | 0.00 | 0.00 | 0.00 | 74 | 1013.8 |
| 20260902050333 | 18 | 357 | 1.6 | 4.8 | 0.00 | 0.00 | 0.00 | 77 | 1013.8 |
| 20260902044306 | 18 | 335 | 1.6 | 3.2 | 0.00 | 0.00 | 0.00 | 76 | 1013.8 |
| 20260902043252 | 18 | 340 | 0.0 | 3.2 | 0.00 | 0.00 | 0.00 | 76 | 1013.4 |
| 20260902042746 | 18 | 328 | 1.6 | 1.6 | 0.00 | 0.00 | 0.00 | 76 | 1013.4 |
| 20260902042240 | 18 | 321 | 0.0 | 3.2 | 0.00 | 0.00 | 0.00 | 77 | 1013.4 |
| 20260902041734 | 18 | 329 | 0.0 | 3.2 | 0.00 | 0.00 | 0.00 | 77 | 1013.4 |
| 20260902041227 | 18 | 318 | 1.6 | 3.2 | 0.00 | 0.00 | 0.00 | 77 | 1013.4 |
| 20260902040721 | 19 | 307 | 0.0 | 4.8 | 0.00 | 0.00 | 0.00 | 77 | 1013.4 |
| 20260902040214 | 19 | 320 | 3.2 | 4.8 | 0.00 | 0.00 | 0.00 | 76 | 1013.4 |
| 20260902035202 | 19 | 322 | 0.0 | 3.2 | 0.00 | 0.00 | 0.00 | 76 | 1013.1 |
| 20260902034655 | 19 | 308 | 1.6 | 1.6 | 0.00 | 0.00 | 0.00 | 76 | 1013.1 |
| 20260902034148 | 19 | 292 | 0.0 | 1.6 | 0.00 | 0.00 | 0.00 | 76 | 1012.8 |
| 20260902033642 | 19 | 288 | 0.0 | 1.6 | 0.00 | 0.00 | 0.00 | 75 | 1012.8 |
| 20260902033136 | 20 | 259 | 0.0 | 3.2 | 0.00 | 0.00 | 0.00 | 75 | 1012.8 |
| 20260902032629 | 20 | 259 | 0.0 | 3.2 | 0.00 | 0.00 | 0.00 | 75 | 1012.8 |
| 20260902032122 | 20 | 250 | 1.6 | 4.8 | 0.00 | 0.00 | 0.00 | 75 | 1012.8 |
| 20260902031616 | 20 | 257 | 1.6 | 4.8 | 0.00 | 0.00 | 0.00 | 74 | 1012.8 |
| 20260902031109 | 20 | 274 | 0.0 | 4.8 | 0.00 | 0.00 | 0.00 | 74 | 1012.8 |
| 20260902030056 | 20 | 242 | 6.4 | 6.4 | 0.00 | 0.00 | 0.00 | 74 | 1012.8 |
| 20260902025550 | 20 | 245 | 3.2 | 6.4 | 0.00 | 0.00 | 0.00 | 73 | 1012.4 |
| 20260902025044 | 20 | 245 | 3.2 | 6.4 | 0.00 | 0.00 | 0.00 | 73 | 1012.8 |
| 20260902024031 | 20 | 252 | 6.4 | 9.7 | 0.00 | 0.00 | 0.00 | 72 | 1012.8 |
| 20260902023524 | 20 | 226 | 4.8 | 6.4 | 0.00 | 0.00 | 0.00 | 72 | 1012.4 |
| 20260902023018 | 20 | 281 | 3.2 | 11.3 | 0.00 | 0.00 | 0.00 | 72 | 1012.4 |
| 20260902022511 | 20 | 257 | 4.8 | 11.3 | 0.00 | 0.00 | 0.00 | 72 | 1012.4 |
| 20260902022005 | 20 | 245 | 4.8 | 9.7 | 0.00 | 0.00 | 0.00 | 71 | 1012.4 |
| 20260902021458 | 20 | 277 | 4.8 | 6.4 | 0.00 | 0.00 | 0.00 | 71 | 1012.4 |
| 20260902020951 | 21 | 266 | 3.2 | 12.9 | 0.00 | 0.00 | 0.00 | 71 | 1012.4 |
| 20260902020445 | 21 | 244 | 8.0 | 12.9 | 0.00 | 0.00 | 0.00 | 71 | 1012.4 |
| 20260902015938 | 21 | 230 | 6.4 | 9.7 | 0.00 | 0.00 | 0.00 | 71 | 1012.4 |
| 20260902015432 | 21 | 239 | 6.4 | 11.3 | 0.00 | 0.00 | 0.00 | 70 | 1012.4 |
| 20260902014926 | 21 | 200 | 4.8 | 11.3 | 0.00 | 0.00 | 0.00 | 71 | 1012.4 |
| 20260902014419 | 21 | 241 | 6.4 | 11.3 | 0.00 | 0.00 | 0.00 | 70 | 1012.4 |
| 20260902013913 | 21 | 245 | 4.8 | 14.5 | 0.00 | 0.00 | 0.00 | 70 | 1012.8 |
| 20260902012900 | 21 | 270 | 3.2 | 16.1 | 0.00 | 0.00 | 0.00 | 71 | 1012.4 |
| 20260902012355 | 21 | 199 | 8.0 | 16.1 | 0.00 | 0.00 | 0.00 | 71 | 1012.8 |
| 20260902011341 | 22 | 255 | 9.7 | 12.9 | 0.00 | 0.00 | 0.00 | 71 | 1012.4 |
| 20260902010833 | 22 | 216 | 8.0 | 12.9 | 0.00 | 0.00 | 0.00 | 70 | 1012.4 |
| 20260902010327 | 21 | 258 | 6.4 | 14.5 | 0.00 | 0.00 | 0.00 | 71 | 1012.8 |
| 20260902005821 | 22 | 258 | 9.7 | 14.5 | 0.00 | 0.00 | 0.00 | 71 | 1012.8 |
| 20260902005314 | 22 | 208 | 9.7 | 14.5 | 0.00 | 0.00 | 0.00 | 70 | 1012.8 |
| 20260902003755 | 22 | 243 | 11.3 | 17.7 | 0.00 | 0.00 | 0.00 | 69 | 1012.8 |
| 20260902002741 | 22 | 224 | 6.4 | 20.9 | 0.00 | 0.00 | 0.00 | 71 | 1012.8 |
| 20260902002235 | 22 | 231 | 11.3 | 20.9 | 0.00 | 0.00 | 0.00 | 69 | 1012.8 |
| 20260902001729 | 22 | 234 | 11.3 | 20.9 | 0.00 | 0.00 | 0.00 | 70 | 1012.8 |
| 20260902001222 | 22 | 248 | 9.7 | 16.1 | 0.00 | 0.00 | 0.00 | 69 | 1012.8 |
| 20260901235702 | 22 | 247 | 9.7 | 22.5 | 0.00 | 0.00 | 0.00 | 71 | 1012.8 |
| 20260901235156 | 22 | 226 | 17.7 | 22.5 | 0.00 | 0.00 | 0.00 | 71 | 1013.1 |
| 20260901234649 | 22 | 267 | 9.7 | 20.9 | 0.00 | 0.00 | 0.00 | 71 | 1013.1 |
| 20260901234142 | 22 | 274 | 6.4 | 20.9 | 0.00 | 0.00 | 0.00 | 71 | 1013.1 |
| 20260901233636 | 22 | 227 | 8.0 | 20.9 | 0.00 | 0.00 | 0.00 | 71 | 1013.1 |
| 20260901233130 | 22 | 226 | 16.1 | 20.9 | 0.00 | 0.00 | 0.00 | 68 | 1013.1 |
| 20260901231610 | 22 | 230 | 19.3 | 22.5 | 0.00 | 0.00 | 0.00 | 69 | 1013.1 |
| 20260901231103 | 22 | 276 | 3.2 | 22.5 | 0.00 | 0.00 | 0.00 | 72 | 1013.1 |
| 20260901230558 | 22 | 204 | 9.7 | 25.7 | 0.00 | 0.00 | 0.00 | 71 | 1013.1 |
| 20260901230050 | 22 | 268 | 12.9 | 25.7 | 0.00 | 0.00 | 0.00 | 71 | 1013.4 |
| 20260901225038 | 22 | 260 | 9.7 | 22.5 | 0.00 | 0.00 | 0.00 | 71 | 1013.4 |
| 20260901224530 | 22 | 257 | 17.7 | 22.5 | 0.00 | 0.00 | 0.00 | 70 | 1013.4 |
| 20260901224024 | 22 | 235 | 12.9 | 25.7 | 0.00 | 0.00 | 0.00 | 71 | 1013.4 |
| 20260901223518 | 22 | 210 | 14.5 | 25.7 | 0.00 | 0.00 | 0.00 | 72 | 1013.4 |
| 20260901223011 | 22 | 225 | 16.1 | 22.5 | 0.00 | 0.00 | 0.00 | 71 | 1013.4 |
| 20260901222504 | 22 | 230 | 11.3 | 24.1 | 0.00 | 0.00 | 0.00 | 70 | 1013.4 |
| 20260901221958 | 23 | 251 | 12.9 | 25.7 | 0.00 | 0.00 | 0.00 | 70 | 1013.4 |
| 20260901221452 | 23 | 237 | 12.9 | 25.7 | 0.00 | 0.00 | 0.00 | 69 | 1013.4 |
| 20260901220945 | 23 | 226 | 17.7 | 25.7 | 0.00 | 0.00 | 0.00 | 69 | 1013.4 |
| 20260901215931 | 23 | 217 | 17.7 | 22.5 | 0.00 | 0.00 | 0.00 | 68 | 1013.4 |
| 20260901215425 | 23 | 222 | 17.7 | 22.5 | 0.00 | 0.00 | 0.00 | 68 | 1013.8 |